Overview Statistics Trail Chart Weather Telemetry Raw packets
 

This is the latest recevied weather packets stored in our database for station/object AG1T-20. If no packets are shown the sender has not sent any weather packets the latest 10 day(s).

<< 52 53 54 55 56 57 58 >>
Time Temp. Humidity Pressure Rain* Wind** Luminosity Snow
1787806207 20.56° C 51% 1022.6 hPa 0 mm - 0 W/m² -
1787805605 21.11° C 49% 1022.6 hPa 0 mm - 0 W/m² -
1787805005 20.56° C 50% 1022.6 hPa 0 mm - 0 W/m² -
1787804405 20.56° C 52% 1022.6 hPa 0 mm - 0 W/m² -
1787803805 21.67° C 49% 1022.6 hPa 0 mm - 0 W/m² -
1787803205 22.22° C 48% 1022.6 hPa 0 mm - 0 W/m² -
1787802605 22.22° C 47% 1022.2 hPa 0 mm - 0 W/m² -
1787802005 21.67° C 49% 1022.2 hPa 0 mm - 0 W/m² -
1787801405 21.67° C 49% 1022.2 hPa 0 mm - 0 W/m² -
1787800805 21.67° C 48% 1022.2 hPa 0 mm - 0 W/m² -
1787800205 22.22° C 47% 1022.2 hPa 0 mm - 0 W/m² -
1787799605 22.22° C 48% 1022.2 hPa 0 mm - 0 W/m² -
1787799005 22.78° C 47% 1021.6 hPa 0 mm - 0 W/m² -
1787798405 23.33° C 45% 1021.6 hPa 0 mm - 0 W/m² -
1787797805 22.78° C 46% 1021.6 hPa 0 mm - 0 W/m² -
1787797205 23.89° C 44% 1021.6 hPa 0 mm - 0 W/m² -
1787796605 23.89° C 43% 1021.6 hPa 0 mm - 2 W/m² -
1787796004 24.44° C 41% 1021.6 hPa 0 mm - 6 W/m² -
1787795405 26.11° C 37% 1020.6 hPa 0 mm - 10 W/m² -
1787794804 27.22° C 34% 1020.6 hPa 0 mm - 17 W/m² -
1787794205 28.33° C 32% 1020.6 hPa 0 mm - 24 W/m² -
1787793604 29.44° C 28% 1020.6 hPa 0 mm - 28 W/m² -
1787793008 32.22° C 25% 1020.6 hPa 0 mm - 32 W/m² -
1787792409 31.67° C 25% 1020.6 hPa 0 mm - 32 W/m² -
1787791805 33.89° C 22% 1021 hPa 0 mm - 47 W/m² -

* Rain latest hour (hover to see other rain measurements)
** Current wind speed in m/s (hover to see current wind gust speed)